Location: *
(49.9853°N, 3.5569°E)
Time: 06:08:54
(UTC+00:00)

Cosmos 1892 Rocket - Pass Details

Date: 22 September 2019
Orbit: 605 x 634 km, 82.5° (Epoch: 16 October)

Event Time Altitude Azimuth Distance (km) Brightness Sun altitude
Rises 19:01:06 0° 350° (N) 2,930 7.4 -12.9°
Reaches altitude 10° 19:03:22 10° 351° (N) 2,014 6.5 -13.3°
Maximum altitude 19:07:50 87° 77° (ENE) 631 3.5 -14.0°
Drops below altitude 10° 19:12:14 10° 170° (S) 1,979 5.9 -14.7°
Enters shadow 19:13:50 - 171° (S) 2,630 6.5 -14.9°
